QFA6969 EDHI-EGLL

Flight info

Callsign QFA6969
Flight time 1h 7m
Altitude 40000
Route ELSOB2W ELSOB N125 SILQI N872 PAM L980 LOGAN
Aircraft A388/J-SADE2E3FGHIJ3J4J5M1RWXY/LB1D1

Departure

Time 2026-04-22 11:39
Airport Hamburg-Finkenwerder Airport (EDHI)

Arrival

Time 2026-04-22 12:47
Airport London Heathrow Airport (EGLL)
Time Latitude Longitude Altitude Speed Heading
2026-04-22 11:26 53.53879 9.84295 29 ft 0 kts 231°
2026-04-22 11:38 53.53815 9.84159 28 ft 54 kts 232°
2026-04-22 11:39 53.53390 9.83246 27 ft 136 kts 232°
2026-04-22 11:39 53.52726 9.81842 375 ft 157 kts 233°
2026-04-22 11:39 53.52054 9.80437 1180 ft 155 kts 234°
2026-04-22 11:39 53.51362 9.78974 1839 ft 163 kts 235°
2026-04-22 11:40 53.50626 9.77389 2398 ft 181 kts 235°
2026-04-22 11:40 53.49818 9.75639 2832 ft 198 kts 234°
2026-04-22 11:40 53.48939 9.73734 3074 ft 214 kts 240°
2026-04-22 11:40 53.48505 9.71260 3413 ft 237 kts 273°
2026-04-22 11:41 53.48762 9.68414 4004 ft 257 kts 287°
2026-04-22 11:41 53.49278 9.65526 5100 ft 260 kts 289°
2026-04-22 11:41 53.49827 9.62571 6127 ft 268 kts 289°
2026-04-22 11:41 53.50354 9.59521 7134 ft 276 kts 288°
2026-04-22 11:42 53.50694 9.57448 7870 ft 277 kts 287°
2026-04-22 11:42 53.51191 9.54293 8982 ft 281 kts 287°
2026-04-22 11:42 53.51680 9.51093 10037 ft 286 kts 287°
2026-04-22 11:42 53.52179 9.47814 10917 ft 296 kts 287°
2026-04-22 11:43 53.52707 9.44345 11348 ft 319 kts 287°
2026-04-22 11:43 53.53099 9.40539 11698 ft 342 kts 272°
2026-04-22 11:43 53.52666 9.36562 12546 ft 351 kts 251°
2026-04-22 11:43 53.51489 9.32904 13358 ft 359 kts 240°
2026-04-22 11:44 53.50173 9.29341 14155 ft 365 kts 240°
2026-04-22 11:44 53.48826 9.25692 14908 ft 370 kts 240°
2026-04-22 11:44 53.47481 9.22037 15635 ft 375 kts 240°
2026-04-22 11:44 53.46102 9.18287 16366 ft 380 kts 240°
2026-04-22 11:45 53.44706 9.14488 17081 ft 385 kts 240°
2026-04-22 11:45 53.43290 9.10641 17788 ft 390 kts 240°
2026-04-22 11:45 53.41851 9.06737 18475 ft 395 kts 240°
2026-04-22 11:45 53.40390 9.02779 19119 ft 400 kts 240°
2026-04-22 11:46 53.38916 8.98792 19682 ft 405 kts 240°
2026-04-22 11:46 53.37420 8.94753 20282 ft 410 kts 240°
2026-04-22 11:46 53.35908 8.90681 20883 ft 414 kts 240°
2026-04-22 11:46 53.34539 8.86565 21272 ft 399 kts 248°
2026-04-22 11:47 53.33517 8.82178 21389 ft 411 kts 253°
2026-04-22 11:47 53.32542 8.77628 21902 ft 417 kts 253°
2026-04-22 11:47 53.31537 8.73044 22626 ft 424 kts 253°
2026-04-22 11:47 53.30508 8.68400 23322 ft 422 kts 253°
2026-04-22 11:48 53.29503 8.63902 23186 ft 406 kts 253°
2026-04-22 11:48 53.28523 8.59440 22812 ft 419 kts 253°
2026-04-22 11:48 53.27513 8.54797 23193 ft 428 kts 253°
2026-04-22 11:48 53.26486 8.50105 23786 ft 432 kts 253°
2026-04-22 11:49 53.25496 8.45350 24290 ft 434 kts 256°
2026-04-22 11:49 53.24601 8.40534 24814 ft 436 kts 257°
2026-04-22 11:49 53.23724 8.35702 25321 ft 439 kts 256°
2026-04-22 11:49 53.22827 8.30816 25850 ft 442 kts 256°
2026-04-22 11:50 53.21910 8.25899 26400 ft 445 kts 256°
2026-04-22 11:50 53.20974 8.20944 26964 ft 449 kts 255°
2026-04-22 11:50 53.20024 8.15950 27530 ft 453 kts 255°
2026-04-22 11:50 53.19063 8.10923 28120 ft 456 kts 255°
2026-04-22 11:51 53.18104 8.05866 28734 ft 460 kts 255°
2026-04-22 11:51 53.17142 8.00757 29327 ft 464 kts 255°
2026-04-22 11:51 53.16171 7.95603 29950 ft 467 kts 255°
2026-04-22 11:51 53.15192 7.90428 30545 ft 472 kts 255°
2026-04-22 11:52 53.14200 7.85202 31090 ft 475 kts 255°
2026-04-22 11:52 53.13194 7.79928 31628 ft 478 kts 254°
2026-04-22 11:52 53.12180 7.74624 32164 ft 482 kts 254°
2026-04-22 11:52 53.11170 7.69353 32665 ft 486 kts 254°
2026-04-22 11:53 53.10137 7.63981 33172 ft 489 kts 254°
2026-04-22 11:53 53.09093 7.58582 33721 ft 492 kts 253°
2026-04-22 11:53 53.08037 7.53133 34224 ft 496 kts 253°
2026-04-22 11:53 53.06973 7.47661 34681 ft 500 kts 253°
2026-04-22 11:54 53.05898 7.42147 35087 ft 503 kts 253°
2026-04-22 11:54 53.04810 7.36582 35583 ft 505 kts 253°
2026-04-22 11:54 53.03723 7.31042 36152 ft 505 kts 253°
2026-04-22 11:54 53.02629 7.25480 36759 ft 504 kts 253°
2026-04-22 11:55 53.01539 7.19956 37396 ft 503 kts 253°
2026-04-22 11:55 53.00435 7.14458 37961 ft 503 kts 253°
2026-04-22 11:55 52.99314 7.08956 38577 ft 502 kts 252°
2026-04-22 11:55 52.98192 7.03476 39166 ft 501 kts 252°
2026-04-22 11:56 52.97073 6.98014 39617 ft 500 kts 252°
2026-04-22 11:56 52.95964 6.92607 40041 ft 500 kts 252°
2026-04-22 11:56 52.94838 6.87128 40360 ft 503 kts 252°
2026-04-22 11:56 52.93698 6.81589 40414 ft 513 kts 252°
2026-04-22 11:57 52.91341 6.70183 40411 ft 534 kts 252°
2026-04-22 11:57 52.88876 6.58332 40397 ft 546 kts 252°
2026-04-22 11:58 52.87659 6.52517 40401 ft 524 kts 252°
2026-04-22 11:58 52.86483 6.46917 40401 ft 505 kts 252°
2026-04-22 11:58 52.84201 6.36070 40403 ft 501 kts 252°
2026-04-22 11:59 52.81893 6.25147 40405 ft 503 kts 252°
2026-04-22 11:59 52.79576 6.14260 40405 ft 502 kts 252°
2026-04-22 12:00 52.77260 6.03432 40396 ft 503 kts 252°
2026-04-22 12:00 52.74903 5.92553 40405 ft 503 kts 250°
2026-04-22 12:01 52.71782 5.82200 40400 ft 505 kts 239°
2026-04-22 12:01 52.67638 5.72804 40401 ft 507 kts 230°
2026-04-22 12:02 52.62981 5.64106 40400 ft 507 kts 229°
2026-04-22 12:02 52.58334 5.55375 40405 ft 507 kts 230°
2026-04-22 12:03 52.53714 5.46731 40403 ft 506 kts 230°
2026-04-22 12:03 52.49052 5.38043 40411 ft 506 kts 229°
2026-04-22 12:04 52.44395 5.29395 40408 ft 506 kts 229°
2026-04-22 12:04 52.39727 5.20754 40408 ft 506 kts 230°
2026-04-22 12:05 52.35352 5.11763 40404 ft 504 kts 238°
2026-04-22 12:05 52.32043 5.01783 40406 ft 501 kts 248°
2026-04-22 12:06 52.29723 4.91068 40410 ft 499 kts 253°
2026-04-22 12:06 52.27537 4.80314 40418 ft 499 kts 253°
2026-04-22 12:07 52.25313 4.69574 40413 ft 498 kts 253°
2026-04-22 12:07 52.23081 4.58873 40392 ft 498 kts 253°
2026-04-22 12:08 52.20841 4.48189 40396 ft 497 kts 253°
2026-04-22 12:08 52.18608 4.37591 40390 ft 497 kts 253°
2026-04-22 12:09 52.16364 4.26994 40398 ft 496 kts 252°
2026-04-22 12:09 52.14094 4.16331 40394 ft 496 kts 252°
2026-04-22 12:10 52.11823 4.05721 40391 ft 496 kts 252°
2026-04-22 12:10 52.09560 3.95204 40388 ft 495 kts 252°
2026-04-22 12:11 52.07280 3.84658 40401 ft 494 kts 252°
2026-04-22 12:11 52.04986 3.74107 40399 ft 494 kts 252°
2026-04-22 12:12 52.02686 3.63579 40401 ft 494 kts 252°
2026-04-22 12:12 52.00195 3.53192 40390 ft 495 kts 246°
2026-04-22 12:13 51.96811 3.43460 40394 ft 497 kts 238°
2026-04-22 12:13 51.92738 3.34410 40392 ft 497 kts 235°
2026-04-22 12:14 51.88701 3.25412 40380 ft 495 kts 239°
2026-04-22 12:14 51.85635 3.15496 40376 ft 491 kts 252°
2026-04-22 12:15 51.84076 3.04820 40377 ft 487 kts 265°
2026-04-22 12:15 51.83407 2.93945 40374 ft 486 kts 266°
2026-04-22 12:16 51.82693 2.83070 40382 ft 485 kts 266°
2026-04-22 12:16 51.81973 2.72392 40381 ft 485 kts 266°
2026-04-22 12:17 51.81233 2.61542 40381 ft 485 kts 266°
2026-04-22 12:17 51.80481 2.50721 40380 ft 485 kts 266°
2026-04-22 12:18 51.79719 2.39884 40389 ft 484 kts 265°
2026-04-22 12:18 51.78950 2.29094 40360 ft 483 kts 265°
2026-04-22 12:19 51.78561 2.23703 39992 ft 480 kts 265°
2026-04-22 12:19 51.78189 2.18361 39360 ft 478 kts 266°
2026-04-22 12:19 51.77874 2.13009 38425 ft 480 kts 267°
2026-04-22 12:19 51.77574 2.07627 37335 ft 482 kts 268°
2026-04-22 12:20 51.77269 2.02243 36403 ft 481 kts 268°
2026-04-22 12:20 51.76957 1.96920 36046 ft 468 kts 268°
2026-04-22 12:20 51.76647 1.91788 35734 ft 449 kts 268°
2026-04-22 12:20 51.76349 1.86954 35580 ft 427 kts 268°
2026-04-22 12:21 51.76062 1.82296 35408 ft 408 kts 268°
2026-04-22 12:21 51.75786 1.77839 35281 ft 389 kts 269°
2026-04-22 12:21 51.75521 1.73547 34968 ft 383 kts 269°
2026-04-22 12:21 51.75259 1.69248 34260 ft 388 kts 269°
2026-04-22 12:22 51.74991 1.64868 33232 ft 397 kts 269°
2026-04-22 12:22 51.74713 1.60357 32049 ft 410 kts 269°
2026-04-22 12:22 51.74423 1.55715 30776 ft 424 kts 269°
2026-04-22 12:22 51.74118 1.50893 29484 ft 435 kts 268°
2026-04-22 12:23 51.73807 1.46078 28666 ft 433 kts 267°
2026-04-22 12:23 51.73492 1.41294 28103 ft 424 kts 268°
2026-04-22 12:23 51.73182 1.36606 27396 ft 419 kts 267°
2026-04-22 12:23 51.72876 1.31934 26605 ft 417 kts 267°
2026-04-22 12:24 51.72571 1.27308 25896 ft 414 kts 266°
2026-04-22 12:24 51.72264 1.22687 25167 ft 412 kts 267°
2026-04-22 12:24 51.71964 1.18155 24425 ft 411 kts 265°
2026-04-22 12:24 51.71660 1.13573 23644 ft 410 kts 264°
2026-04-22 12:25 51.71352 1.09014 22685 ft 410 kts 264°
2026-04-22 12:25 51.71038 1.04392 21424 ft 419 kts 263°
2026-04-22 12:25 51.70715 0.99674 20425 ft 423 kts 263°
2026-04-22 12:25 51.70393 0.95022 19820 ft 415 kts 263°
2026-04-22 12:26 51.70177 0.91921 19549 ft 406 kts 263°
2026-04-22 12:26 51.69765 0.85949 18454 ft 406 kts 261°
2026-04-22 12:26 51.69449 0.81432 17588 ft 405 kts 261°
2026-04-22 12:26 51.69132 0.76950 16918 ft 398 kts 261°
2026-04-22 12:27 51.68819 0.72553 16278 ft 391 kts 262°
2026-04-22 12:27 51.68512 0.68217 15482 ft 389 kts 261°
2026-04-22 12:27 51.68203 0.63894 14701 ft 388 kts 261°
2026-04-22 12:27 51.67997 0.61037 14236 ft 387 kts 261°
2026-04-22 12:28 51.67690 0.56786 13618 ft 379 kts 261°
2026-04-22 12:28 51.67385 0.52580 12872 ft 375 kts 261°
2026-04-22 12:28 51.67084 0.48428 12126 ft 373 kts 261°
2026-04-22 12:28 51.66782 0.44294 11421 ft 368 kts 260°
2026-04-22 12:29 51.66479 0.40192 10698 ft 367 kts 261°
2026-04-22 12:29 51.66180 0.36151 10002 ft 363 kts 261°
2026-04-22 12:29 51.65881 0.32137 9296 ft 358 kts 261°
2026-04-22 12:29 51.65584 0.28158 8561 ft 357 kts 261°
2026-04-22 12:30 51.65017 0.20573 8094 ft 326 kts 261°
2026-04-22 12:30 51.64752 0.17058 7865 ft 314 kts 260°
2026-04-22 12:30 51.64497 0.13655 7671 ft 301 kts 261°
2026-04-22 12:31 51.64298 0.10305 7556 ft 289 kts 262°
2026-04-22 12:31 51.64139 0.07156 7434 ft 277 kts 263°
2026-04-22 12:31 51.63988 0.04153 7370 ft 267 kts 262°
2026-04-22 12:31 51.63832 0.01181 7344 ft 267 kts 262°
2026-04-22 12:32 51.63669 -0.01803 7422 ft 266 kts 262°
2026-04-22 12:32 51.63335 -0.07755 7417 ft 267 kts 262°
2026-04-22 12:32 51.63167 -0.10724 7426 ft 266 kts 262°
2026-04-22 12:33 51.62997 -0.13698 7450 ft 267 kts 262°
2026-04-22 12:33 51.62825 -0.16678 7442 ft 267 kts 261°
2026-04-22 12:33 51.62655 -0.19639 7461 ft 265 kts 261°
2026-04-22 12:33 51.62484 -0.22604 7447 ft 267 kts 262°
2026-04-22 12:34 51.62313 -0.25579 7459 ft 268 kts 262°
2026-04-22 12:34 51.62142 -0.28554 7462 ft 266 kts 261°
2026-04-22 12:34 51.61969 -0.31520 7461 ft 266 kts 261°
2026-04-22 12:34 51.61793 -0.34490 7325 ft 266 kts 261°
2026-04-22 12:35 51.61618 -0.37456 7326 ft 266 kts 261°
2026-04-22 12:35 51.61442 -0.40428 7325 ft 267 kts 261°
2026-04-22 12:35 51.61268 -0.43366 7326 ft 266 kts 261°
2026-04-22 12:35 51.61090 -0.46344 7331 ft 268 kts 261°
2026-04-22 12:36 51.60913 -0.49313 7306 ft 266 kts 261°
2026-04-22 12:36 51.60734 -0.52287 7322 ft 267 kts 261°
2026-04-22 12:36 51.60552 -0.55299 7308 ft 266 kts 261°
2026-04-22 12:36 51.60379 -0.58176 7309 ft 256 kts 261°
2026-04-22 12:37 51.60212 -0.60959 7311 ft 244 kts 261°
2026-04-22 12:37 51.60053 -0.63605 7320 ft 233 kts 261°
2026-04-22 12:37 51.59901 -0.66140 7288 ft 223 kts 260°
2026-04-22 12:37 51.59747 -0.68608 7127 ft 221 kts 260°
2026-04-22 12:38 51.59591 -0.71065 6917 ft 221 kts 260°
2026-04-22 12:38 51.59435 -0.73542 6743 ft 222 kts 260°
2026-04-22 12:38 51.59282 -0.75981 6563 ft 222 kts 259°
2026-04-22 12:38 51.58817 -0.78261 6343 ft 209 kts 228°
2026-04-22 12:39 51.57759 -0.79647 5963 ft 187 kts 193°
2026-04-22 12:39 51.55269 -0.79877 4679 ft 179 kts 166°
2026-04-22 12:39 51.54029 -0.79667 4322 ft 180 kts 166°
2026-04-22 12:40 51.52766 -0.79485 4192 ft 183 kts 168°
2026-04-22 12:40 51.51488 -0.79357 3968 ft 185 kts 169°
2026-04-22 12:40 51.50232 -0.79147 3631 ft 176 kts 154°
2026-04-22 12:40 51.49229 -0.78129 3183 ft 169 kts 132°
2026-04-22 12:41 51.48493 -0.76851 3009 ft 140 kts 120°
2026-04-22 12:41 51.48043 -0.75615 3012 ft 121 kts 109°
2026-04-22 12:41 51.47792 -0.74364 2999 ft 115 kts 98°
2026-04-22 12:41 51.47697 -0.73105 3000 ft 113 kts 91°
2026-04-22 12:42 51.47674 -0.71829 2931 ft 116 kts 89°
2026-04-22 12:42 51.47673 -0.70555 2813 ft 115 kts 88°
2026-04-22 12:42 51.47675 -0.69272 2659 ft 115 kts 89°
2026-04-22 12:42 51.47677 -0.68008 2509 ft 112 kts 89°
2026-04-22 12:43 51.47681 -0.66746 2357 ft 115 kts 89°
2026-04-22 12:43 51.47687 -0.65455 2198 ft 115 kts 89°
2026-04-22 12:43 51.47685 -0.64179 2047 ft 113 kts 89°
2026-04-22 12:43 51.47700 -0.62902 1890 ft 113 kts 87°
2026-04-22 12:44 51.47703 -0.61636 1738 ft 115 kts 89°
2026-04-22 12:44 51.47703 -0.60367 1572 ft 110 kts 89°
2026-04-22 12:44 51.47706 -0.59123 1437 ft 115 kts 88°
2026-04-22 12:44 51.47719 -0.57860 1282 ft 110 kts 89°
2026-04-22 12:45 51.47718 -0.56643 1119 ft 109 kts 90°
2026-04-22 12:45 51.47724 -0.55405 976 ft 112 kts 90°
2026-04-22 12:45 51.47730 -0.54132 822 ft 116 kts 89°
2026-04-22 12:45 51.47731 -0.52837 663 ft 119 kts 89°
2026-04-22 12:46 51.47739 -0.51548 485 ft 113 kts 88°
2026-04-22 12:46 51.47752 -0.50287 314 ft 112 kts 88°
2026-04-22 12:46 51.47753 -0.49066 184 ft 111 kts 90°
2026-04-22 12:46 51.47764 -0.47821 105 ft 96 kts 91°
2026-04-22 12:47 51.47758 -0.47051 96 ft 42 kts 92°
2026-04-22 12:47 51.47757 -0.46689 97 ft 26 kts 89°
2026-04-22 12:47 51.47758 -0.46451 98 ft 17 kts 89°
2026-04-22 12:47 51.47759 -0.46258 95 ft 19 kts 89°
2026-04-22 12:48 51.47761 -0.46036 92 ft 22 kts 89°
2026-04-22 12:48 51.47763 -0.45775 89 ft 23 kts 89°
2026-04-22 12:48 51.47763 -0.45525 90 ft 22 kts 90°
2026-04-22 12:48 51.47763 -0.45281 93 ft 21 kts 90°
2026-04-22 12:49 51.47762 -0.45050 94 ft 19 kts 90°
2026-04-22 12:49 51.47755 -0.44936 97 ft 6 kts 116°
2026-04-22 12:49 51.47731 -0.44887 96 ft 6 kts 137°
2026-04-22 12:49 51.47688 -0.44822 97 ft 9 kts 137°
2026-04-22 12:50 51.47663 -0.44799 95 ft 8 kts 160°
2026-04-22 12:50 51.47615 -0.44747 95 ft 8 kts 117°
2026-04-22 12:50 51.47587 -0.44690 95 ft 6 kts 155°
2026-04-22 12:50 51.47546 -0.44662 93 ft 7 kts 150°
2026-04-22 12:51 51.47505 -0.44608 94 ft 8 kts 134°
2026-04-22 12:51 51.47470 -0.44572 95 ft 6 kts 162°
2026-04-22 12:51 51.47427 -0.44561 93 ft 7 kts 173°
2026-04-22 12:51 51.47365 -0.44554 94 ft 11 kts 180°
2026-04-22 12:52 51.47291 -0.44555 94 ft 11 kts 181°
2026-04-22 12:52 51.47206 -0.44559 91 ft 14 kts 180°
2026-04-22 12:52 51.47107 -0.44558 91 ft 15 kts 179°
2026-04-22 12:52 51.47009 -0.44556 93 ft 11 kts 179°
2026-04-22 12:53 51.46928 -0.44555 91 ft 13 kts 179°
2026-04-22 12:53 51.46846 -0.44554 92 ft 9 kts 179°
2026-04-22 12:53 51.46808 -0.44554 93 ft 4 kts 179°
2026-04-22 12:53 51.46779 -0.44554 94 ft 2 kts 184°
2026-04-22 12:54 51.46750 -0.44574 94 ft 3 kts 228°
2026-04-22 12:54 51.46738 -0.44619 93 ft 5 kts 270°
2026-04-22 12:54 51.46749 -0.44699 93 ft 10 kts 277°
2026-04-22 12:54 51.46752 -0.44825 92 ft 10 kts 270°
2026-04-22 12:55 51.46752 -0.44960 91 ft 14 kts 270°
2026-04-22 12:55 51.46751 -0.45151 91 ft 18 kts 270°
2026-04-22 12:55 51.46751 -0.45332 94 ft 3 kts 270°
2026-04-22 12:55 51.46751 -0.45383 91 ft 6 kts 270°
2026-04-22 12:56 51.46757 -0.45426 92 ft 4 kts 302°
2026-04-22 12:56 51.46779 -0.45455 95 ft 4 kts 342°
2026-04-22 12:56 51.46799 -0.45458 92 ft 3 kts 11°
2026-04-22 12:56 51.46811 -0.45453 92 ft 1 kts
2026-04-22 12:57 51.46824 -0.45450 91 ft 2 kts
2026-04-22 12:57 51.46833 -0.45448 91 ft 2 kts
2026-04-22 12:57 51.46835 -0.45448 91 ft 0 kts
2026-04-22 12:58 51.46805 -0.45451 93 ft 0 kts
2026-04-22 13:01 51.46838 -0.45448 91 ft 5 kts
2026-04-22 13:02 51.46934 -0.45431 91 ft 7 kts 11°
2026-04-22 13:02 51.46834 -0.45445 97 ft 2 kts 358°
2026-04-22 13:02 51.46834 -0.45443 91 ft 0 kts 358°
2026-04-22 13:02 51.46834 -0.45445 91 ft 0 kts 359°